When you browse on this site, cookies collect data to enhance your experience and personalize the content and advertising you see.
Visit our Privacy Policy to learn more. By continuing to use the site, you agree to this use of cookies and data.
  • In Hungary
  • List of Countries
  • For 7 days
  • Water Temperature
  • Satellite Maps
  • Weather Map
  • News
  • Weather Widgets
  • user-avatar
    Login

    Hourly Weather Międzyzdroje

    Today, 21 February, Thursday

    Time Temperature Precipitation Wind Pressure Humidity
    00:00 +4°C° 0.1 mm 4 mps 764 mmHg 89%
    01:00 +4°C° 0 mm 4 mps 764 mmHg 90%
    02:00 +4°C° 0.4 mm 4 mps 764 mmHg 90%
    03:00 +3°C° 0.4 mm 5 mps 764 mmHg 90%
    04:00 +3°C° 0.4 mm 6 mps 763 mmHg 90%
    05:00 +3°C° 0.6 mm 6 mps 763 mmHg 90%
    06:00 +3°C° 0.6 mm 6 mps 763 mmHg 90%
    07:00 +3°C° 0 mm 6 mps 763 mmHg 90%
    08:00 +3°C° 1.1 mm 6 mps 763 mmHg 91%
    09:00 +3°C° 1.1 mm 6 mps 763 mmHg 91%
    10:00 +3°C° 1.1 mm 6 mps 763 mmHg 92%
    11:00 +4°C° 0.2 mm 6 mps 763 mmHg 89%
    12:00 +4°C° 0.2 mm 6 mps 763 mmHg 86%
    13:00 +5°C° 0.2 mm 6 mps 763 mmHg 83%
    14:00 +5°C° 0.6 mm 6 mps 763 mmHg 86%
    15:00 +5°C° 0.6 mm 7 mps 762 mmHg 88%
    16:00 +4°C° 0.6 mm 7 mps 762 mmHg 91%
    17:00 +4°C° 0.3 mm 7 mps 763 mmHg 91%
    18:00 +4°C° 0.3 mm 7 mps 763 mmHg 92%
    19:00 +4°C° 0.3 mm 6 mps 763 mmHg 93%
    20:00 +3°C° 0.6 mm 6 mps 763 mmHg 94%
    21:00 +3°C° 0.6 mm 6 mps 764 mmHg 94%
    22:00 +3°C° 0.6 mm 6 mps 765 mmHg 95%
    23:00 +2°C° 0.2 mm 7 mps 766 mmHg 92%

    Tomorrow, 22 February, Friday

    Time Temperature Precipitation Wind Pressure Humidity
    00:00 0°C° 0.2 mm 7 mps 767 mmHg 89%
    01:00 0°C° 0.2 mm 8 mps 768 mmHg 86%
    02:00 -1°C° 0 mm 8 mps 769 mmHg 83%
    03:00 -1°C° 0 mm 8 mps 770 mmHg 80%
    04:00 -2°C° 0 mm 8 mps 771 mmHg 78%
    05:00 -2°C° 0 mm 8 mps 772 mmHg 74%
    06:00 -2°C° 0 mm 7 mps 773 mmHg 71%
    07:00 -3°C° 0 mm 7 mps 774 mmHg 68%
    08:00 -3°C° 0 mm 6 mps 775 mmHg 65%
    09:00 -2°C° 0 mm 6 mps 776 mmHg 62%
    10:00 -2°C° 0 mm 6 mps 777 mmHg 59%
    11:00 -1°C° 0 mm 5 mps 778 mmHg 57%
    12:00 -1°C° 0 mm 5 mps 778 mmHg 56%
    13:00 0°C° 0 mm 5 mps 779 mmHg 54%
    14:00 0°C° 0 mm 4 mps 779 mmHg 54%
    15:00 0°C° 0 mm 4 mps 779 mmHg 54%
    16:00 0°C° 0 mm 4 mps 779 mmHg 54%
    17:00 0°C° 0 mm 3 mps 780 mmHg 57%
    18:00 0°C° 0 mm 3 mps 780 mmHg 59%
    19:00 -1°C° 0 mm 3 mps 781 mmHg 61%
    20:00 -1°C° 0 mm 3 mps 781 mmHg 61%
    21:00 -1°C° 0 mm 3 mps 781 mmHg 60%
    22:00 -1°C° 0 mm 3 mps 781 mmHg 60%
    23:00 -1°C° 0 mm 3 mps 781 mmHg 58%

    Day after tomorrow, 23 February, Saturday

    Time Temperature Precipitation Wind Pressure Humidity
    00:00 -1°C° 0 mm 3 mps 781 mmHg 57%
    01:00 -2°C° 0 mm 4 mps 781 mmHg 55%
    02:00 -2°C° 0 mm 4 mps 781 mmHg 54%
    03:00 -3°C° 0 mm 4 mps 781 mmHg 52%
    04:00 -3°C° 0 mm 4 mps 781 mmHg 50%
    05:00 -3°C° 0 mm 4 mps 781 mmHg 50%
    06:00 -3°C° 0 mm 4 mps 781 mmHg 50%
    07:00 -3°C° 0 mm 4 mps 781 mmHg 49%
    08:00 -2°C° 0 mm 4 mps 781 mmHg 48%
    09:00 -2°C° 0 mm 4 mps 781 mmHg 47%
    10:00 -2°C° 0 mm 4 mps 781 mmHg 45%
    11:00 -1°C° 0 mm 4 mps 781 mmHg 43%
    12:00 +1°C° 0 mm 3 mps 781 mmHg 42%
    13:00 +2°C° 0 mm 3 mps 781 mmHg 40%
    14:00 +2°C° 0 mm 3 mps 780 mmHg 41%
    15:00 +2°C° 0 mm 3 mps 780 mmHg 42%
    16:00 +3°C° 0 mm 2 mps 780 mmHg 44%
    17:00 +2°C° 0 mm 3 mps 779 mmHg 46%
    18:00 +1°C° 0 mm 3 mps 779 mmHg 48%
    19:00 +1°C° 0 mm 3 mps 779 mmHg 50%
    20:00 0°C° 0 mm 3 mps 779 mmHg 51%
    21:00 0°C° 0 mm 3 mps 779 mmHg 53%
    22:00 0°C° 0 mm 3 mps 779 mmHg 54%
    23:00 -1°C° 0 mm 4 mps 779 mmHg 54%

    24 February, Sunday

    Time Temperature Precipitation Wind Pressure Humidity
    00:00 -1°C° 0 mm 4 mps 778 mmHg 54%
    01:00 -1°C° 0 mm 4 mps 778 mmHg 54%
    02:00 -1°C° 0 mm 4 mps 778 mmHg 54%
    03:00 0°C° 0 mm 3 mps 778 mmHg 55%
    04:00 0°C° 0 mm 3 mps 777 mmHg 55%
    05:00 0°C° 0 mm 3 mps 777 mmHg 56%
    06:00 0°C° 0 mm 3 mps 777 mmHg 56%
    07:00 0°C° 0 mm 3 mps 777 mmHg 56%
    08:00 +1°C° 0 mm 3 mps 777 mmHg 56%
    09:00 +1°C° 0 mm 4 mps 777 mmHg 55%
    10:00 +1°C° 0 mm 4 mps 777 mmHg 54%
    11:00 +3°C° 0 mm 4 mps 777 mmHg 54%
    12:00 +4°C° 0 mm 4 mps 777 mmHg 54%
    13:00 +4°C° 0 mm 3 mps 777 mmHg 54%
    14:00 +5°C° 0 mm 3 mps 777 mmHg 56%
    15:00 +5°C° 0 mm 3 mps 777 mmHg 57%
    16:00 +5°C° 0 mm 3 mps 777 mmHg 59%
    17:00 +4°C° 0 mm 3 mps 777 mmHg 61%
    18:00 +4°C° 0 mm 3 mps 777 mmHg 63%
    19:00 +3°C° 0 mm 3 mps 777 mmHg 65%
    20:00 +3°C° 0 mm 3 mps 777 mmHg 65%
    21:00 +3°C° 0 mm 3 mps 777 mmHg 65%
    22:00 +3°C° 0 mm 3 mps 777 mmHg 66%
    23:00 +3°C° 0 mm 3 mps 777 mmHg 66%

    25 February, Monday

    Time Temperature Precipitation Wind Pressure Humidity
    00:00 +3°C° 0 mm 3 mps 777 mmHg 67%
    01:00 +3°C° 0 mm 3 mps 777 mmHg 67%
    02:00 +2°C° 0 mm 3 mps 777 mmHg 69%
    03:00 +2°C° 0 mm 3 mps 777 mmHg 70%
    04:00 +2°C° 0 mm 3 mps 777 mmHg 71%
    05:00 +2°C° 0 mm 3 mps 777 mmHg 72%
    06:00 +2°C° 0 mm 3 mps 777 mmHg 73%
    07:00 +2°C° 0 mm 3 mps 777 mmHg 74%
    08:00 +3°C° 0 mm 3 mps 777 mmHg 72%
    09:00 +4°C° 0 mm 2 mps 777 mmHg 70%
    10:00 +5°C° 0 mm 2 mps 777 mmHg 69%
    11:00 +6°C° 0 mm 2 mps 777 mmHg 66%
    12:00 +6°C° 0 mm 2 mps 777 mmHg 64%
    13:00 +7°C° 0 mm 2 mps 777 mmHg 62%
    14:00 +7°C° 0 mm 2 mps 776 mmHg 63%
    15:00 +8°C° 0 mm 2 mps 776 mmHg 63%
    16:00 +8°C° 0 mm 3 mps 775 mmHg 64%
    17:00 +7°C° 0 mm 3 mps 775 mmHg 67%
    18:00 +7°C° 0 mm 3 mps 775 mmHg 70%
    19:00 +5°C° 0 mm 3 mps 775 mmHg 73%
    20:00 +5°C° 0 mm 3 mps 775 mmHg 75%
    21:00 +4°C° 0 mm 4 mps 774 mmHg 76%
    22:00 +4°C° 0 mm 4 mps 774 mmHg 77%
    23:00 +4°C° 0 mm 4 mps 774 mmHg 78%

    26 February, Tuesday

    Time Temperature Precipitation Wind Pressure Humidity
    00:00 +3°C° 0 mm 5 mps 774 mmHg 79%
    01:00 +3°C° 0 mm 5 mps 773 mmHg 80%
    02:00 +2°C° 0 mm 5 mps 773 mmHg 78%
    03:00 +2°C° 0 mm 5 mps 772 mmHg 75%
    04:00 +2°C° 0 mm 6 mps 771 mmHg 73%
    05:00 +2°C° 0 mm 6 mps 771 mmHg 72%
    06:00 +2°C° 0 mm 6 mps 771 mmHg 72%
    07:00 +2°C° 0 mm 6 mps 770 mmHg 71%
    08:00 +2°C° 0 mm 6 mps 770 mmHg 72%
    09:00 +3°C° 0 mm 6 mps 770 mmHg 74%
    10:00 +4°C° 0 mm 6 mps 770 mmHg 75%
    11:00 +4°C° 0 mm 6 mps 770 mmHg 78%
    12:00 +4°C° 0 mm 6 mps 770 mmHg 81%
    13:00 +4°C° 0 mm 6 mps 770 mmHg 84%
    14:00 +5°C° 0 mm 5 mps 770 mmHg 87%
    15:00 +5°C° 0 mm 5 mps 770 mmHg 89%
    16:00 +5°C° 0 mm 4 mps 770 mmHg 91%
    17:00 +4°C° 0 mm 4 mps 770 mmHg 93%
    18:00 +4°C° 0 mm 3 mps 771 mmHg 94%
    19:00 +4°C° 0 mm 2 mps 771 mmHg 95%
    20:00 +4°C° 0 mm 2 mps 771 mmHg 94%
    21:00 +5°C° 0 mm 1 mps 771 mmHg 93%
    22:00 +4°C° 0 mm 0 mps 771 mmHg 92%
    23:00 +4°C° 0 mm 0 mps 772 mmHg 91%
    Show more